WI1SKY Weather Reports


Display with metric or nautical units.
time (UTC)temp
F
wind
direction
speed
MPH
gust
MPH
rain 1hr
in
rain 24hr
in
rain mn
in
humidity
%
barometer
mb
20260902041900 72 163 2.0 6.0 0.01 0.02 0.01 91 1012.2
20260902041401 72 5 0.0 0.0 0.00 0.01 0.01 91 1012.1
20260902040901 72 5 0.0 0.0 0.00 0.01 0.01 90 1011.8
20260902040712 72 5 0.0 0.0 0.00 0.01 0.01 90 1011.8
20260902035902 72 5 0.0 0.0 0.00 0.01 0.01 90 1011.7
20260902035402 72 5 0.0 0.0 0.00 0.01 0.01 90 1011.5
20260902034900 72 5 0.0 0.0 0.00 0.01 0.01 90 1011.7
20260902034402 72 5 0.0 0.0 0.00 0.01 0.01 89 1011.8
20260902033901 72 5 0.0 0.0 0.00 0.01 0.01 89 1011.8
20260902033708 72 5 0.0 1.0 0.00 0.01 0.01 89 1011.7
20260902033207 72 5 1.0 3.0 0.00 0.01 0.01 89 1011.8
20260902032401 72 5 1.0 3.0 0.00 0.01 0.01 89 1011.9
20260902031901 73 5 0.0 2.0 0.00 0.01 0.01 89 1011.9
20260902031400 73 0 1.0 3.0 0.00 0.01 0.01 89 1012.1
20260902030900 73 0 1.0 3.0 0.00 0.01 0.01 89 1012.2
20260902030721 73 57 0.0 2.0 0.00 0.01 0.01 89 1012.1
20260902030215 73 57 0.0 2.0 0.00 0.01 0.01 89 1012.1
20260902025403 73 322 0.0 0.0 0.00 0.01 0.01 89 1012.2
20260902024903 73 321 0.0 0.0 0.00 0.01 0.01 88 1012.3
20260902024402 73 321 0.0 0.0 0.00 0.01 0.01 88 1012.4
20260902023902 73 321 0.0 0.0 0.00 0.01 0.01 88 1012.4
20260902023521 73 321 0.0 0.0 0.00 0.01 0.01 89 1012.3
20260902023446 73 321 0.0 0.0 0.00 0.01 0.01 87 1012.4
20260902022403 73 321 0.0 0.0 0.00 0.01 0.01 89 1012.4
20260902021903 74 321 0.0 0.0 0.00 0.01 0.01 89 1012.3
20260902021402 74 321 0.0 0.0 0.00 0.01 0.01 89 1012.1
20260902020903 74 321 0.0 0.0 0.00 0.01 0.01 89 1012.3
20260902020402 74 321 0.0 0.0 0.00 0.01 0.01 89 1012.5
20260902015906 74 321 0.0 0.0 0.00 0.01 0.01 88 1012.4
20260902015406 74 321 0.0 0.0 0.00 0.01 0.01 88 1012.3
20260902014901 74 321 0.0 0.0 0.00 0.01 0.01 87 1012.2
20260902014517 74 321 0.0 0.0 0.00 0.01 0.01 87 1012.0
20260902014448 74 321 0.0 0.0 0.00 0.01 0.01 87 1012.1
20260902013401 74 321 0.0 0.0 0.00 0.01 0.01 87 1011.9
20260902012901 74 321 0.0 0.0 0.00 0.01 0.01 87 1011.9
20260902012400 74 321 0.0 0.0 0.01 0.01 0.01 86 1011.8
20260902012157 74 321 0.0 0.0 0.01 0.01 0.01 86 1011.8
20260902011401 75 321 0.0 0.0 0.01 0.01 0.01 85 1011.8
20260902010901 75 321 0.0 0.0 0.01 0.01 0.01 85 1011.7
20260902010401 74 321 0.0 0.0 0.01 0.01 0.01 83 1011.6
20260902010210 74 321 0.0 1.0 0.01 0.01 0.01 82 1011.5
20260902005403 75 321 0.0 2.0 0.01 0.01 0.01 83 1011.5
20260902004909 75 321 1.0 2.0 0.01 0.01 0.01 82 1011.3
20260902004405 75 321 2.0 3.0 0.01 0.01 0.01 82 1011.3
20260902003902 75 321 2.0 3.0 0.01 0.01 0.01 81 1011.3
20260902003401 76 321 2.0 4.0 0.01 0.01 0.01 80 1011.3
20260902003213 76 321 1.0 4.0 0.01 0.01 0.01 79 1011.4
20260902002401 76 276 0.0 3.0 0.00 0.00 0.00 79 1011.1
20260902001902 76 192 0.0 0.0 0.00 0.00 0.00 79 1011.0
20260902001402 76 192 0.0 0.0 0.00 0.00 0.00 78 1010.9
20260902000903 76 192 0.0 0.0 0.00 0.00 0.00 75 1010.9
20260902000401 76 192 0.0 0.0 0.00 0.00 0.00 76 1010.9
20260901235902 77 192 0.0 0.0 0.00 0.00 0.00 75 1010.9
20260901235401 77 192 0.0 1.0 0.00 0.00 0.00 74 1010.9
20260901235206 78 263 1.0 2.0 0.00 0.00 0.00 68 1010.9
20260901234400 78 263 1.0 2.0 0.00 0.00 0.00 69 1010.9
20260901234206 80 261 0.0 2.0 0.00 0.00 0.00 66 1011.3
20260901233401 81 261 1.0 2.0 0.00 0.00 0.00 63 1011.8
20260901232902 81 261 2.0 4.0 0.00 0.00 0.00 60 1011.9
20260901232401 81 190 3.0 6.0 0.00 0.00 0.00 58 1011.9
20260901231901 81 226 2.0 6.0 0.00 0.00 0.00 66 1012.1
20260901231401 81 188 0.0 4.0 0.00 0.00 0.00 74 1012.3
20260901230900 82 176 0.0 0.0 0.00 0.00 0.00 79 1012.6
20260901230401 82 176 0.0 0.0 0.00 0.00 0.00 77 1012.4
20260901225903 82 176 0.0 0.0 0.00 0.00 0.00 74 1012.1
20260901225402 82 120 0.0 0.0 0.00 0.00 0.00 74 1011.9
20260901224902 82 112 0.0 0.0 0.00 0.00 0.00 75 1011.7
20260901224402 82 112 0.0 0.0 0.00 0.00 0.00 75 1011.3
20260901223902 83 112 0.0 0.0 0.00 0.00 0.00 75 1010.9
20260901223712 83 215 0.0 0.0 0.00 0.00 0.00 76 1010.8
20260901223232 85 215 0.0 0.0 0.00 0.00 0.00 74 1011.7
20260901222903 84 215 0.0 0.0 0.00 0.00 0.00 76 1011.2
20260901222854 85 215 0.0 0.0 0.00 0.00 0.00 76 1011.5
20260901221024 86 215 0.0 0.0 0.00 0.00 0.00 70 1011.4
20260901220952 86 215 0.0 0.0 0.00 0.00 0.00 72 1011.7
20260901215902 86 215 0.0 0.0 0.00 0.00 0.00 68 1011.2
20260901215402 86 215 0.0 1.0 0.00 0.00 0.00 67 1010.8
20260901214903 87 215 0.0 1.0 0.00 0.00 0.00 66 1010.9
20260901214401 87 215 0.0 0.0 0.00 0.00 0.00 66 1011.0
20260901213903 87 215 0.0 0.0 0.00 0.00 0.00 65 1011.2
20260901213405 88 215 0.0 0.0 0.00 0.00 0.00 63 1011.3
20260901212903 88 215 0.0 0.0 0.00 0.00 0.00 62 1011.4
20260901212403 88 215 0.0 0.0 0.00 0.00 0.00 59 1011.5
20260901211902 87 215 0.0 0.0 0.00 0.00 0.00 62 1011.5
20260901211520 87 215 0.0 0.0 0.00 0.00 0.00 62 1011.7
20260901211452 87 215 0.0 0.0 0.00 0.00 0.00 64 1011.6
20260901210401 87 215 0.0 0.0 0.00 0.00 0.00 61 1011.7
20260901205900 86 165 0.0 0.0 0.00 0.00 0.00 63 1011.7
20260901205401 86 302 0.0 0.0 0.00 0.00 0.00 63 1011.7
20260901204901 85 302 0.0 0.0 0.00 0.00 0.00 67 1011.7
20260901204710 86 302 0.0 0.0 0.00 0.00 0.00 68 1011.7
20260901203901 86 302 0.0 0.0 0.00 0.00 0.00 69 1011.8
20260901203401 86 302 0.0 0.0 0.00 0.00 0.00 69 1011.9
20260901202902 86 302 0.0 0.0 0.00 0.00 0.00 67 1011.8
20260901202401 87 302 0.0 0.0 0.00 0.00 0.00 68 1011.8
20260901201900 87 302 0.0 0.0 0.00 0.00 0.00 62 1011.8
20260901201402 88 302 0.0 0.0 0.00 0.00 0.00 59 1012.0
20260901200901 88 302 0.0 0.0 0.00 0.00 0.00 56 1012.0
20260901200401 88 302 0.0 0.0 0.00 0.00 0.00 59 1011.9
20260901195901 89 302 0.0 0.0 0.00 0.00 0.00 59 1012.0
20260901195400 89 302 0.0 0.0 0.00 0.00 0.00 60 1012.1
20260901194900 89 302 0.0 0.0 0.00 0.00 0.00 59 1012.4
20260901194400 90 302 0.0 0.0 0.00 0.00 0.00 56 1012.5
20260901193900 90 302 0.0 0.0 0.00 0.00 0.00 59 1012.5
20260901193710 90 302 1.0 3.0 0.00 0.00 0.00 49 1012.4
20260901192901 90 302 1.0 3.0 0.00 0.00 0.00 59 1012.5
20260901192401 90 265 1.0 3.0 0.00 0.00 0.00 57 1012.5
20260901191902 90 265 1.0 3.0 0.00 0.00 0.00 58 1012.4
20260901191401 89 265 1.0 3.0 0.00 0.00 0.00 58 1012.5
20260901191214 89 265 2.0 3.0 0.00 0.00 0.00 62 1012.4
20260901190400 89 265 1.0 3.0 0.00 0.00 0.00 64 1012.4
20260901185900 89 265 0.0 3.0 0.00 0.00 0.00 64 1012.4
20260901185401 88 254 0.0 2.0 0.00 0.00 0.00 63 1012.4
20260901184901 88 254 0.0 2.0 0.00 0.00 0.00 66 1012.4
20260901184401 88 254 1.0 4.0 0.00 0.00 0.00 65 1012.4
20260901183901 88 254 1.0 4.0 0.00 0.00 0.00 67 1012.5
20260901183401 88 241 1.0 3.0 0.00 0.00 0.00 66 1012.4
20260901182900 87 241 1.0 3.0 0.00 0.00 0.00 70 1012.5
20260901182401 87 241 1.0 3.0 0.00 0.00 0.00 71 1012.5
20260901181900 86 241 0.0 3.0 0.00 0.00 0.00 70 1012.5
20260901181401 86 257 0.0 1.0 0.00 0.00 0.00 76 1012.5
20260901180901 85 257 0.0 2.0 0.00 0.00 0.00 77 1012.4
20260901180402 85 182 0.0 2.0 0.00 0.00 0.00 75 1012.5
20260901180211 84 269 0.0 0.0 0.00 0.00 0.00 80 1012.6
20260901175708 84 269 0.0 0.0 0.00 0.00 0.00 80 1012.6
20260901174901 83 240 0.0 0.0 0.00 0.00 0.00 79 1012.7
20260901174400 83 240 0.0 0.0 0.00 0.00 0.00 80 1012.7
20260901173900 82 240 0.0 2.0 0.00 0.00 0.00 81 1012.8
20260901173402 82 240 0.0 2.0 0.00 0.00 0.00 83 1012.8
20260901172903 81 244 0.0 0.0 0.00 0.00 0.00 86 1012.9
20260901172402 81 244 0.0 0.0 0.00 0.00 0.00 88 1012.9
20260901171907 81 244 0.0 0.0 0.00 0.00 0.00 89 1012.9
20260901171402 81 244 0.0 0.0 0.00 0.00 0.00 91 1012.9
20260901171214 80 244 0.0 0.0 0.00 0.00 0.00 92 1012.9
20260901170353 80 244 0.0 0.0 0.00 0.00 0.00 93 1013.0
20260901165846 80 245 0.0 0.0 0.00 0.00 0.00 94 1013.0
20260901165342 79 239 0.0 0.0 0.00 0.00 0.00 94 1013.0
20260901164843 79 239 0.0 0.0 0.00 0.00 0.00 95 1012.9
20260901164340 79 239 0.0 0.0 0.00 0.00 0.00 95 1013.0
20260901163839 78 239 0.0 0.0 0.00 0.00 0.00 95 1013.0
20260901163339 78 239 0.0 2.0 0.00 0.00 0.00 95 1013.1
20260901162839 78 239 1.0 2.0 0.00 0.00 0.00 96 1013.0
20260901162340 77 239 1.0 3.0 0.00 0.00 0.00 96 1013.1
20260901161837 77 239 0.0 3.0 0.00 0.00 0.00 96 1013.1
20260901161337 77 214 0.0 0.0 0.00 0.00 0.00 96 1013.0
20260901160840 77 214 0.0 0.0 0.00 0.00 0.00 96 1012.9
20260901160338 77 214 0.0 0.0 0.00 0.00 0.00 96 1013.0
20260901155835 77 214 0.0 0.0 0.00 0.00 0.00 96 1013.1
20260901155335 77 214 0.0 0.0 0.00 0.00 0.00 96 1013.2
20260901155157 76 214 0.0 0.0 0.00 0.00 0.00 96 1013.1
20260901154332 76 214 0.0 0.0 0.00 0.00 0.00 96 1013.2
20260901153831 76 214 0.0 0.0 0.00 0.00 0.00 96 1013.3
20260901153332 76 214 0.0 0.0 0.00 0.00 0.00 96 1013.2
20260901152830 76 214 0.0 0.0 0.00 0.00 0.00 96 1013.2
20260901152329 75 214 0.0 0.0 0.00 0.00 0.00 96 1013.2
20260901151830 75 214 0.0 0.0 0.00 0.00 0.00 96 1013.1
20260901151331 75 214 0.0 0.0 0.00 0.00 0.00 96 1013.2
20260901150830 75 214 0.0 0.0 0.00 0.00 0.00 96 1013.2
20260901150331 75 214 0.0 0.0 0.00 0.00 0.00 96 1013.2
20260901145828 75 214 0.0 0.0 0.00 0.00 0.00 96 1013.2
20260901145632 75 214 0.0 0.0 0.00 0.00 0.00 96 1013.3
20260901144829 75 214 0.0 0.0 0.00 0.00 0.00 96 1013.3
20260901144633 75 214 0.0 0.0 0.00 0.00 0.00 96 1013.3
20260901143829 74 214 0.0 0.0 0.00 0.00 0.00 96 1013.3
20260901143329 74 214 0.0 0.0 0.00 0.00 0.00 96 1013.3
20260901142828 74 214 0.0 0.0 0.00 0.00 0.00 96 1013.3
20260901142329 74 214 0.0 0.0 0.00 0.00 0.00 96 1013.3
20260901141830 74 214 0.0 0.0 0.00 0.00 0.00 96 1013.2
20260901141633 74 214 0.0 0.0 0.00 0.00 0.00 96 1013.3
20260901140829 74 214 0.0 0.0 0.00 0.00 0.00 96 1013.2
20260901140328 74 214 0.0 0.0 0.00 0.00 0.00 96 1013.2
20260901135833 74 214 0.0 0.0 0.00 0.00 0.00 96 1013.2
20260901135334 74 214 0.0 0.0 0.00 0.00 0.00 96 1013.2
20260901134834 74 214 0.0 0.0 0.00 0.00 0.00 96 1013.3
20260901134329 74 214 0.0 0.0 0.00 0.00 0.00 96 1013.3
20260901133832 73 214 0.0 0.0 0.00 0.00 0.00 96 1013.3
20260901133329 73 214 0.0 0.0 0.00 0.00 0.00 96 1013.4
20260901133250 73 214 0.0 0.0 0.00 0.00 0.00 96 1013.3
20260901133243 73 214 0.0 0.0 0.00 0.00 0.00 96 1013.3
20260901131830 73 214 0.0 0.0 0.00 0.00 0.00 96 1013.3
20260901131334 73 214 0.0 0.0 0.00 0.00 0.00 96 1013.3
20260901130826 73 214 0.0 0.0 0.00 0.00 0.00 96 1013.3
20260901130323 73 214 0.0 0.0 0.00 0.00 0.00 96 1013.3
20260901125824 73 214 0.0 0.0 0.00 0.00 0.00 96 1013.4
20260901125624 73 214 0.0 0.0 0.00 0.00 0.00 96 1013.3
20260901124823 73 214 0.0 0.0 0.00 0.00 0.00 96 1013.3
20260901124320 73 214 0.0 0.0 0.00 0.00 0.00 96 1013.2
20260901123818 73 214 0.0 0.0 0.00 0.00 0.00 96 1013.2
20260901123318 73 214 0.0 0.0 0.00 0.00 0.00 96 1013.2
20260901122816 73 214 0.0 0.0 0.00 0.00 0.00 96 1013.1
20260901122319 73 214 0.0 0.0 0.00 0.00 0.00 96 1013.0
20260901121814 73 214 0.0 0.0 0.00 0.00 0.00 96 1013.0
20260901121314 73 214 0.0 0.0 0.00 0.00 0.00 96 1012.9
20260901120814 73 214 0.0 0.0 0.00 0.00 0.00 96 1012.9
20260901120313 73 214 0.0 0.0 0.00 0.00 0.00 96 1012.9
20260901120116 73 214 0.0 0.0 0.00 0.00 0.00 96 1012.9
20260901115611 72 214 0.0 0.0 0.00 0.00 0.00 96 1012.9
20260901114808 72 214 0.0 0.0 0.00 0.00 0.00 96 1012.8
20260901114306 72 214 0.0 0.0 0.00 0.00 0.00 96 1012.9
20260901113804 72 214 0.0 0.0 0.00 0.00 0.00 96 1012.8
20260901113304 72 214 0.0 0.0 0.00 0.00 0.00 95 1012.7
20260901112803 72 214 0.0 0.0 0.00 0.00 0.00 96 1012.6
20260901112306 72 214 0.0 0.0 0.00 0.00 0.00 96 1012.6
20260901111803 72 214 0.0 0.0 0.00 0.00 0.00 96 1012.5
20260901111302 72 214 0.0 0.0 0.00 0.00 0.00 96 1012.5
20260901110802 72 214 0.0 0.0 0.00 0.00 0.00 96 1012.5
20260901110303 72 214 0.0 0.0 0.00 0.00 0.00 96 1012.4
20260901110105 72 214 0.0 0.0 0.00 0.00 0.00 96 1012.5
20260901105305 71 214 0.0 0.0 0.00 0.00 0.00 95 1012.4
20260901105119 71 214 0.0 0.0 0.00 0.00 0.00 95 1012.4
20260901104303 71 214 0.0 0.0 0.00 0.00 0.00 95 1012.3
20260901103803 71 214 0.0 0.0 0.00 0.00 0.00 95 1012.3
20260901103303 71 214 0.0 0.0 0.00 0.00 0.00 95 1012.2
20260901102802 71 214 0.0 0.0 0.00 0.00 0.00 95 1012.2
20260901102559 72 214 0.0 0.0 0.00 0.00 0.00 95 1012.1
20260901102110 72 214 0.0 0.0 0.00 0.00 0.00 95 1012.0
20260901101423 72 214 0.0 0.0 0.00 0.00 0.00 95 1012.0
20260901101354 72 214 0.0 0.0 0.00 0.00 0.00 95 1012.1
20260901100304 72 214 0.0 0.0 0.00 0.00 0.00 95 1012.1
20260901095802 72 214 0.0 0.0 0.00 0.00 0.00 95 1012.1
20260901095559 72 214 0.0 0.0 0.00 0.00 0.00 95 1012.1
20260901094811 72 214 0.0 0.0 0.00 0.00 0.00 95 1012.0
20260901094302 72 214 0.0 0.0 0.00 0.00 0.00 95 1012.1
20260901093802 72 214 0.0 0.0 0.00 0.00 0.00 95 1012.1
20260901093301 72 214 0.0 0.0 0.00 0.00 0.00 95 1012.0
20260901092803 72 214 0.0 0.0 0.00 0.00 0.00 95 1012.0
20260901092606 72 214 0.0 0.0 0.00 0.00 0.00 95 1012.1
20260901091801 72 214 0.0 0.0 0.00 0.00 0.00 95 1012.0
20260901091301 72 214 0.0 0.0 0.00 0.00 0.00 95 1012.1
20260901090801 72 214 0.0 0.0 0.00 0.00 0.00 95 1012.0
20260901090303 72 214 0.0 0.0 0.00 0.00 0.00 95 1011.9
20260901085800 72 214 0.0 0.0 0.00 0.00 0.00 95 1011.9
20260901085305 72 214 0.0 0.0 0.00 0.00 0.00 95 1011.8
20260901084801 72 214 0.0 0.0 0.00 0.00 0.00 95 1011.7
20260901084304 72 214 0.0 0.0 0.00 0.00 0.00 95 1011.7
20260901083802 73 214 0.0 0.0 0.00 0.00 0.00 94 1011.7
20260901083301 73 214 0.0 0.0 0.00 0.00 0.00 95 1011.7
20260901082801 73 214 0.0 0.0 0.00 0.00 0.00 95 1011.7
20260901082301 73 214 0.0 0.0 0.00 0.00 0.00 95 1011.8
20260901081801 73 214 0.0 0.0 0.00 0.00 0.00 95 1011.8
20260901081346 73 214 0.0 0.0 0.00 0.00 0.00 95 1011.9
20260901080303 73 214 0.0 0.0 0.00 0.00 0.00 95 1012.0
20260901075804 73 214 0.0 0.0 0.00 0.00 0.00 95 1012.0
20260901075306 73 214 0.0 0.0 0.00 0.00 0.00 95 1011.9
20260901074803 73 214 0.0 0.0 0.00 0.00 0.00 95 1011.9
20260901074420 73 214 0.0 0.0 0.00 0.00 0.00 95 1012.0
20260901074353 73 214 0.0 0.0 0.00 0.00 0.00 95 1012.0
20260901073303 73 214 0.0 0.0 0.00 0.00 0.00 94 1012.0
20260901072802 73 214 0.0 0.0 0.00 0.00 0.00 94 1011.9
20260901072308 74 214 0.0 0.0 0.00 0.00 0.00 95 1012.0
20260901071803 74 214 0.0 0.0 0.00 0.00 0.00 95 1012.0
20260901071304 73 214 0.0 0.0 0.00 0.00 0.00 95 1012.0
20260901070802 73 214 0.0 0.0 0.00 0.00 0.00 94 1012.0
20260901070303 73 214 0.0 0.0 0.00 0.00 0.00 94 1012.0
20260901065802 73 214 0.0 0.0 0.00 0.00 0.00 94 1012.0
20260901065305 73 214 0.0 0.0 0.00 0.00 0.00 94 1012.0
20260901064926 73 214 0.0 0.0 0.00 0.00 0.00 94 1011.9
20260901064855 73 214 0.0 0.0 0.00 0.00 0.00 94 1011.9
20260901063802 73 214 0.0 0.0 0.00 0.00 0.00 94 1011.9
20260901063303 73 214 0.0 0.0 0.00 0.00 0.00 94 1011.9
20260901062802 73 214 0.0 0.0 0.00 0.00 0.00 93 1011.9
20260901062309 73 214 0.0 0.0 0.00 0.00 0.00 93 1012.0
20260901062113 73 214 0.0 0.0 0.00 0.00 0.00 93 1011.9
20260901061615 74 214 0.0 0.0 0.00 0.00 0.00 93 1011.9
20260901060801 74 214 0.0 0.0 0.00 0.00 0.00 92 1011.9
20260901060614 74 214 0.0 0.0 0.00 0.00 0.00 92 1011.8
20260901055803 75 214 0.0 0.0 0.00 0.00 0.00 93 1011.8
20260901055616 75 214 0.0 0.0 0.00 0.00 0.00 93 1011.8
20260901054801 75 214 0.0 0.0 0.00 0.00 0.00 94 1011.7
20260901054301 75 214 0.0 0.0 0.00 0.00 0.00 94 1011.7
20260901053802 75 214 0.0 0.0 0.00 0.00 0.00 94 1011.7
20260901053611 75 214 0.0 0.0 0.00 0.00 0.00 94 1011.6
20260901052800 75 214 0.0 0.0 0.00 0.00 0.00 94 1011.6
20260901052610 75 214 0.0 0.0 0.00 0.00 0.00 93 1011.6
20260901051801 75 214 0.0 0.0 0.00 0.00 0.00 93 1011.5
20260901051301 75 214 0.0 0.0 0.00 0.00 0.00 93 1011.4
20260901050800 75 214 0.0 0.0 0.00 0.00 0.00 93 1011.6
20260901050300 75 214 0.0 0.0 0.00 0.00 0.00 93 1011.6
20260901045801 75 214 0.0 0.0 0.00 0.00 0.00 92 1011.6
20260901045301 76 214 0.0 0.0 0.00 0.00 0.00 92 1011.5
20260901044800 76 214 0.0 0.0 0.00 0.00 0.00 93 1011.5
20260901044300 76 214 0.0 0.0 0.00 0.00 0.00 93 1011.5
20260901043801 76 214 0.0 0.0 0.00 0.00 0.00 93 1011.4
20260901043301 76 214 0.0 0.0 0.00 0.00 0.00 93 1011.4
20260901042801 76 214 0.0 0.0 0.00 0.00 0.00 93 1011.5
20260901042305 76 214 0.0 0.0 0.00 0.00 0.00 93 1011.4